Location: Baix
(44.7118°N, 4.7648°E)
Time: 02:31:53
(UTC+00:00)

MSX - Pass Details

Date: 07 August 2020
Orbit: 896 x 905 km, 98.8° (Epoch: 19 September)

Event Time Altitude Azimuth Distance (km) Brightness Sun altitude
Rises 03:05:16 0° 15° (NNE) 3,531 7.9 -14.1°
Reaches altitude 10° 03:07:42 10° 18° (NNE) 2,587 7.2 -13.8°
Maximum altitude 03:13:28 74° 103° (ESE) 940 4.0 -13.0°
Drops below altitude 10° 03:19:13 10° 189° (S) 2,575 5.8 -12.2°
Enters shadow 03:20:07 - 190° (S) 2,928 6.1 -12.1°
